Location: Unspecified
(0.0000°N, 0.0000°E)
Time: 06:49:26
(UTC+00:00)

Lacrosse 3 - Visible Passes

Search period start: 26 October 2021 00:00
Search period end: 05 November 2021 00:00
Orbit: 652 x 659 km, 57.0° (Epoch: 24 October)

Date Brightness Start Highest point End Pass type
(mag) Time Alt. Az. Time Alt. Az. Time Alt. Az.
26 Oct 2.3 03:57:25 65° NE 03:57:43 67° ENE 04:02:25 10° SE visible
27 Oct 3.0 04:26:26 31° WSW 04:26:38 31° WSW 04:30:50 10° S visible
28 Oct 4.5 03:17:23 20° SE 03:17:23 20° SE 03:18:54 10° SE visible
29 Oct 4.3 03:46:10 18° S 03:46:10 18° S 03:47:32 10° S visible
